Location: Freistadt
(48.5112°N, 14.5013°E)
Time: 23:58:38
(UTC+02:00)

O/OREOS (USA 219) - Pass Details

Date: 10 April 2023
Orbit: 621 x 646 km, 72.0° (Epoch: 22 May)

Event Time Altitude Azimuth Distance (km) Brightness Sun altitude
Exits shadow 04:16:09 46° 239° (WSW) 854 ? -19.6°
Maximum altitude 04:17:17 65° 298° (WNW) 704 ? -19.5°
Drops below altitude 10° 04:21:49 10° 21° (NNE) 2,025 ? -18.9°
Sets 04:24:06 0° 25° (NNE) 2,933 ? -18.6°
